Location: Dead Woman Crossing
(43.5369°N, 106.3228°W)
Time: 02:52:14
(UTC+00:00)

M-CUBED/EXP-1 PRIME - Visible Passes

Search period start: 28 June 2022 00:00
Search period end: 08 July 2022 00:00
Orbit: 423 x 634 km, 101.7° (Epoch: 27 June)

Date Brightness Start Highest point End Pass type
(mag) Time Alt. Az. Time Alt. Az. Time Alt. Az.
28 Jun ? 07:05:16 13° ENE 07:06:06 14° ENE 07:07:49 10° NNE visible
28 Jun ? 08:40:31 29° WNW 08:40:31 29° WNW 08:42:43 10° NW visible
29 Jun ? 08:29:16 44° WNW 08:29:16 44° WNW 08:31:52 10° NNW visible
30 Jun ? 08:18:01 64° NNW 08:18:01 64° NNW 08:20:54 10° NNW visible
01 Jul ? 08:06:45 60° NE 08:06:45 60° NE 08:09:50 10° NNW visible
02 Jul ? 07:55:28 40° ENE 07:55:31 40° ENE 07:58:42 10° N visible
03 Jul ? 07:44:10 27° ENE 07:44:31 28° ENE 07:47:27 10° N visible
03 Jul ? 09:19:25 14° WNW 09:19:25 14° WNW 09:20:37 10° WNW visible
04 Jul ? 07:32:51 19° ENE 07:33:32 20° ENE 07:36:05 10° NNE visible
04 Jul ? 09:08:06 21° WNW 09:08:06 21° WNW 09:10:03 10° NW visible
05 Jul ? 07:21:32 13° E 07:22:33 15° ENE 07:24:31 10° NNE visible
05 Jul ? 08:56:47 31° WNW 08:56:47 31° WNW 08:59:15 10° NW visible
06 Jul ? 07:10:42 10° ENE 07:11:36 11° NE 07:12:30 10° NE visible
06 Jul ? 08:45:26 47° WNW 08:45:26 47° WNW 08:48:20 10° NNW visible
07 Jul ? 08:34:05 73° NW 08:34:05 73° NW 08:37:18 10° NNW visible
